Regional Weather Roundup
Issued by NWS

Home | Current Version | Previous Version | Text Only | Print | Product List | Glossary Off
Versions: 1 2 3 4 5 6 7 8 9 10 11 12 13 14 15 16 17 18 19 20 21 22 23 24 25 26 27 28 29 30 31 32 33 34 35 36 37 38 39 40 41 42 43 44 45 46 47 48 49 50

000
ASUS43 KMKX 262300
RWRWI

WISCONSIN REGIONAL WEATHER ROUNDUP
NATIONAL WEATHER SERVICE MILWAUKEE/SULLIVAN WI
600 PM CDT MON SEP 26 2016

NOTE: "FAIR" INDICATES FEW OR NO CLOUDS BELOW 12,000 FEET WITH NO
SIGNIFICANT WEATHER AND/OR OBSTRUCTIONS TO VISIBILITY.

WIZ001-002-006>008-014>016-023>028-270000-
NORTHWEST WISCONSIN

CITY           SKY/WX    TMP DP  RH WIND       PRES   REMARKS
SUPERIOR ARPT  CLOUDY    56  44  62 W13G25    29.75S
ASHLAND        LGT RAIN  51  46  83 SW10G22   29.73S
HAYWARD        LGT RAIN  54  42  64 VRB6      29.78S
SIREN          CLOUDY    59  38  44 W12G24    29.82R
CUMBERLAND     PTCLDY    57  36  44 W21G33    29.82F
RICE LAKE      MOCLDY    61  37  40 W13G24    29.83F
CHETEK         NOT AVBL
LADYSMITH      CLOUDY    58  40  51 W15G30    29.82R
EAU CLAIRE     NOT AVBL
MENOMONIE      PTCLDY    61  39  43 W9G20     29.86S
NEW RICHMOND   MOCLDY    61  34  36 W10G26    29.86S
OSCEOLA        PTCLDY    63  35  35 NW16G29   29.88S
$$

WIZ003>005-009-010-017-018-270000-
NORTH CENTRAL WISCONSIN

CITY           SKY/WX    TMP DP  RH WIND       PRES   REMARKS
MANITOWISH WTR NOT AVBL
ARBOR VITAE    CLOUDY    52  47  85 W14G20    29.74F
WOODRUFF       CLOUDY    52  47  85 W14G20    29.74F
RHINELANDER    CLOUDY    50  46  86 W12       29.76F
EAGLE RIVER    DRIZZLE   48  45  89 W16G25    29.73S
LAND O LAKES   DRIZZLE   48  46  92 W13G20    29.73S
PHILLIPS       CLOUDY    53  42  65 W8        29.77S
TOMAHAWK       DRIZZLE   50  43  76 W6        29.78F
MEDFORD        CLOUDY    56  40  55 W13G21    29.80F
MERRILL        CLOUDY    54  43  65 W14       29.80S
$$

WIZ029-030-035-036-043>047-270000-
CENTRAL WISCONSIN

CITY           SKY/WX    TMP DP  RH WIND       PRES   REMARKS
WAUSAU         CLOUDY    56  39  53 W17G23    29.79S
MOSINEE        MOCLDY    55  39  54 W17G23    29.83R
MARSHFIELD     PTCLDY    58  38  47 W15       29.83R
STEVENS POINT  CLOUDY    57  37  47 W12G28    29.83S
WAUPACA        CLOUDY    61  37  40 W16G25    29.83R
WAUTOMA        CLOUDY    61  39  44 W17       29.85R
WISC RAPIDS    PTCLDY    60  39  45 W13G25    29.86R
CAMP DOUGLAS   NOT AVBL
$$

WIZ011>013-019>022-031-037>040-048>050-270000-
NORTHEAST WISCONSIN

CITY           SKY/WX    TMP DP  RH WIND       PRES   REMARKS
ANTIGO         CLOUDY    50  43  76 W14G22    29.79S
SHAWANO        CLOUDY    59  40  49 W15G28    29.80R
OCONTO         NOT AVBL
STURGEON BAY   LGT RAIN  58  42  55 W21G30    29.77R
GREEN BAY      CLOUDY    60  41  49 W18G26    29.80R
MANITOWOC      NOT AVBL
APPLETON       MOCLDY    59  34  38 W18G29    29.81R
CLINTONVILLE   NOT AVBL
OSHKOSH        MOCLDY    61  38  42 W15G22    29.82R
$$

WIZ032>034-041-042-053>061-270000-
SOUTHWEST WISCONSIN

CITY           SKY/WX    TMP DP  RH WIND       PRES   REMARKS
LA CROSSE      CLEAR     67  34  29 NW14      29.87S
SPARTA         CLEAR     63  39  41 NW13      29.88S
VIROQUA        CLEAR     64  29  27 W15G26    29.89S
BOSCOBEL       CLEAR     68  33  27 W12G24    29.90S
PRAIRIE DU CHI CLEAR     68  30  24 W15G26    29.91S
PLATTEVILLE    CLEAR     66  35  30 W21G31    29.94S
$$

WIZ056-057-062-063-064-067-068-270000-
SOUTH CENTRAL WISCONSIN

CITY           SKY/WX    TMP DP  RH WIND       PRES   REMARKS
REEDSBURG      NOT AVBL
BARABOO/DELLS  PTCLDY    64  33  31 W13       29.87R
LONE ROCK      NOT AVBL
MINERAL POINT  CLEAR     66  30  26 W15G26    29.91S
MADISON        MOCLDY    64  34  32 W10G18    29.87S
MIDDLETON      NOT AVBL
WATERTOWN      CLOUDY    64  36  35 W15       29.86S
MONROE         CLEAR     64  32  29 W26G33    29.92S
JANESVILLE     PTCLDY    66  32  28 W17G28    29.90S
$$

WIZ051-052-058>065-066-070>072-270000-
SOUTHEAST WISCONSIN

CITY           SKY/WX    TMP DP  RH WIND       PRES   REMARKS
MILWAUKEE      PTCLDY    66  34  30 W14       29.87S
WAUKESHA       MOCLDY    61  34  36 W12G25    29.88S
MILWAUKEE/TIMM PTCLDY    64  30  27 W16       29.87S
RACINE         PTCLDY    65  34  31 W9        29.89S
BURLINGTON     CLEAR     64  32  30 W10G23    29.89S
KENOSHA        PTCLDY    64  36  35 W13G24    29.89S
FOND DU LAC    PTCLDY    62  38  40 W13G21    29.84R
SHEBOYGAN      PTCLDY    62  36  37 W15G25    29.83R
WEST BEND      MOCLDY    63  32  31 W16G23    29.85S
JUNEAU         MOCLDY    62  35  36 W9G22     29.87S
$$

LSZ147-162-270000-
LAKE SUPERIOR

STATION/POSITION TIME  TEMP    WIND        PRES    WAVE
                       AIR SEA DIR/SP/G            HT/PER
                 (UTC) (F)     (DEG/KT/KT) (MB)    (FT/S)
W MID LAKE BUOY  2150   51 48  250/ 27/ 35 1001.0R   8/ 7
DEVILS ISLAND    2200   53     250/ 31/ 36 1004.2R
SAXON HARBOR     2240   52     220/  6/ 10 1006.1S
$$

LMZ867-665-643>646-270000-
LAKE MICHIGAN

STATION/POSITION TIME  TEMP    WIND        PRES    WAVE
                       AIR SEA DIR/SP/G            HT/PER
                 (UTC) (F)     (DEG/KT/KT) (MB)    (FT/S)
CHAMBERS ISLAND  2240   58     220/ 13/ 25 1006.8R
N MID LAKE BUOY  2150   60 67  250/ 27/ 33 1004.9R   6/ 6
NORTHPORT PIER   2200   60     240/  7/ 15 1006.4S
KEWAUNEE LAKESHO 2200   62     260/ 15/ 23 1007.8S
SHEBOYGAN LAKESH 2200   63     250/ 13/ 16 1009.4F
PORT WASHINGTON  2200   66     260/  9/ 18 1011.2F
ATWATER BUOY     2200   64     250/ 16/ 19 1011.1F
MILWAUKEE LAKESH 2210   65     270/ 14/ 17   N/A
S MID LAKE BUOY  2150   66 71  260/ 23/ 29 1010.9F   5/ 5
KENOSHA   LAKESH 2200   67     270/ 17/ 27 1011.9S
$$

TC  - TEMPERATURE IN CELSIUS
VSB - VISIBILITY IN STATUTE MILES
WCI - WIND CHILL INDEX
HX  - HEAT INDEX





USA.gov is the U.S. government's official web portal to all federal, state and local government web resources and services.